SAS954 EKCH-EBBR

Flight info

Callsign SAS954
Flight time 1h 15m
Altitude 40000
Route NEXEN2C NEXEN T503 GIMRU DCT MICOS DCT KEGAB DCT ABAMI Z717 NEREL/N0363F240 T855 AGENI/N0332F180 T855 BATTY BATTY7A
Aircraft A333/H-SDE3GHIJ2J3J5M1RVWXY/LB2D1

Departure

Time 2026-05-04 07:19
Airport Copenhagen Kastrup Airport (EKCH)

Arrival

Time 2026-05-04 08:35
Airport Brussels Airport (EBBR)
Time Latitude Longitude Altitude Speed Heading
2026-05-04 06:54 55.62623 12.64416 26 ft 0 kts 61°
2026-05-04 07:01 55.62621 12.64408 26 ft 0 kts 41°
2026-05-04 07:06 55.62620 12.64407 26 ft 0 kts 56°
2026-05-04 07:06 55.62622 12.64414 26 ft 0 kts 60°
2026-05-04 07:12 55.62585 12.64272 27 ft 3 kts 65°
2026-05-04 07:12 55.62576 12.64238 27 ft 3 kts 65°
2026-05-04 07:12 55.62563 12.64208 32 ft 3 kts 48°
2026-05-04 07:12 55.62550 12.64177 31 ft 3 kts 62°
2026-05-04 07:13 55.62546 12.64139 31 ft 4 kts 117°
2026-05-04 07:13 55.62563 12.64092 32 ft 8 kts 124°
2026-05-04 07:13 55.62582 12.64042 27 ft 0 kts 124°
2026-05-04 07:16 55.62564 12.64091 32 ft 11 kts 124°
2026-05-04 07:16 55.62504 12.64248 28 ft 19 kts 125°
2026-05-04 07:16 55.62422 12.64430 25 ft 18 kts 144°
2026-05-04 07:17 55.62327 12.64419 27 ft 12 kts 198°
2026-05-04 07:17 55.62251 12.64377 26 ft 13 kts 197°
2026-05-04 07:17 55.62144 12.64299 23 ft 19 kts 205°
2026-05-04 07:17 55.62012 12.64190 26 ft 23 kts 205°
2026-05-04 07:18 55.61861 12.64080 28 ft 25 kts 188°
2026-05-04 07:18 55.61674 12.64083 28 ft 28 kts 180°
2026-05-04 07:18 55.61611 12.64042 28 ft 4 kts 220°
2026-05-04 07:18 55.61428 12.63759 21 ft 68 kts 221°
2026-05-04 07:19 55.60921 12.62980 24 ft 125 kts 221°
2026-05-04 07:19 55.60137 12.61767 56 ft 171 kts 222°
2026-05-04 07:19 55.59224 12.60362 811 ft 176 kts 226°
2026-05-04 07:19 55.58317 12.58968 1895 ft 170 kts 227°
2026-05-04 07:20 55.57389 12.57530 2454 ft 191 kts 227°
2026-05-04 07:20 55.56249 12.55919 2720 ft 228 kts 221°
2026-05-04 07:20 55.54889 12.54216 3223 ft 248 kts 219°
2026-05-04 07:20 55.53442 12.52462 4011 ft 254 kts 219°
2026-05-04 07:22 55.42989 12.39732 10426 ft 277 kts 219°
2026-05-04 07:22 55.41342 12.37711 10767 ft 299 kts 219°
2026-05-04 07:23 55.39595 12.35579 11303 ft 311 kts 218°
2026-05-04 07:23 55.38405 12.34134 11800 ft 315 kts 218°
2026-05-04 07:23 55.36587 12.31932 12644 ft 318 kts 218°
2026-05-04 07:23 55.34761 12.29721 13487 ft 320 kts 218°
2026-05-04 07:24 55.32914 12.27484 14251 ft 323 kts 218°
2026-05-04 07:24 55.31058 12.25238 15015 ft 325 kts 218°
2026-05-04 07:24 55.29192 12.22982 15816 ft 327 kts 218°
2026-05-04 07:24 55.27312 12.20712 16611 ft 330 kts 218°
2026-05-04 07:25 55.25478 12.18498 17328 ft 332 kts 218°
2026-05-04 07:26 55.11985 12.01616 21675 ft 351 kts 219°
2026-05-04 07:27 55.10009 11.99093 22263 ft 353 kts 219°
2026-05-04 07:27 55.08020 11.96559 22838 ft 356 kts 219°
2026-05-04 07:27 55.06008 11.93996 23418 ft 358 kts 219°
2026-05-04 07:27 55.03994 11.91436 23885 ft 361 kts 219°
2026-05-04 07:28 55.01947 11.88837 24348 ft 364 kts 219°
2026-05-04 07:28 54.99895 11.86234 24814 ft 366 kts 219°
2026-05-04 07:28 54.97825 11.83613 25262 ft 368 kts 219°
2026-05-04 07:28 54.95749 11.80987 25699 ft 370 kts 219°
2026-05-04 07:29 54.93657 11.78346 26162 ft 372 kts 219°
2026-05-04 07:29 54.91565 11.75707 26609 ft 373 kts 219°
2026-05-04 07:29 54.89452 11.73045 27041 ft 376 kts 219°
2026-05-04 07:29 54.87359 11.70411 27461 ft 378 kts 219°
2026-05-04 07:30 54.85217 11.67719 27875 ft 380 kts 219°
2026-05-04 07:30 54.83068 11.65023 28313 ft 382 kts 219°
2026-05-04 07:30 54.80901 11.62307 28735 ft 385 kts 219°
2026-05-04 07:30 54.78723 11.59580 29149 ft 387 kts 219°
2026-05-04 07:31 54.76532 11.56839 29576 ft 389 kts 219°
2026-05-04 07:31 54.74331 11.54092 29944 ft 392 kts 219°
2026-05-04 07:33 54.58597 11.34565 32233 ft 407 kts 219°
2026-05-04 07:33 54.56285 11.31712 32554 ft 409 kts 218°
2026-05-04 07:33 54.53959 11.28861 32983 ft 408 kts 218°
2026-05-04 07:33 54.51645 11.26039 33422 ft 408 kts 218°
2026-05-04 07:34 54.49330 11.23225 33818 ft 407 kts 218°
2026-05-04 07:34 54.47019 11.20422 34187 ft 406 kts 217°
2026-05-04 07:34 54.44715 11.17629 34508 ft 405 kts 217°
2026-05-04 07:34 54.42406 11.14832 34754 ft 408 kts 217°
2026-05-04 07:35 54.40082 11.12020 34990 ft 409 kts 217°
2026-05-04 07:35 54.37747 11.09198 35233 ft 411 kts 217°
2026-05-04 07:35 54.35436 11.06407 35481 ft 412 kts 217°
2026-05-04 07:35 54.33049 11.03531 35740 ft 414 kts 217°
2026-05-04 07:36 54.30726 11.00736 35960 ft 415 kts 217°
2026-05-04 07:36 54.28323 10.97869 36194 ft 417 kts 217°
2026-05-04 07:38 54.11471 10.78020 37748 ft 425 kts 217°
2026-05-04 07:38 54.09028 10.75157 37966 ft 426 kts 217°
2026-05-04 07:38 54.06585 10.72299 38178 ft 427 kts 217°
2026-05-04 07:38 54.04131 10.69431 38388 ft 428 kts 217°
2026-05-04 07:39 54.01673 10.66563 38581 ft 429 kts 217°
2026-05-04 07:39 53.99205 10.63688 38744 ft 430 kts 217°
2026-05-04 07:39 53.96730 10.60809 38933 ft 430 kts 217°
2026-05-04 07:39 53.94258 10.57937 39114 ft 431 kts 217°
2026-05-04 07:40 53.91787 10.55072 39291 ft 431 kts 217°
2026-05-04 07:40 53.89310 10.52204 39480 ft 431 kts 217°
2026-05-04 07:40 53.86835 10.49341 39677 ft 431 kts 217°
2026-05-04 07:40 53.84351 10.46473 39858 ft 430 kts 217°
2026-05-04 07:41 53.79381 10.40744 39945 ft 434 kts 217°
2026-05-04 07:41 53.74378 10.34996 39967 ft 434 kts 217°
2026-05-04 07:42 53.69387 10.29279 39986 ft 434 kts 217°
2026-05-04 07:42 53.64386 10.23566 39987 ft 434 kts 217°
2026-05-04 07:43 53.59385 10.17870 39988 ft 434 kts 217°
2026-05-04 07:43 53.54381 10.12187 39986 ft 434 kts 217°
2026-05-04 07:44 53.49413 10.06561 39989 ft 433 kts 217°
2026-05-04 07:44 53.44412 10.00914 39989 ft 433 kts 217°
2026-05-04 07:45 53.39415 9.95288 39978 ft 433 kts 217°
2026-05-04 07:45 53.34413 9.89673 39982 ft 433 kts 217°
2026-05-04 07:46 53.29414 9.84076 39980 ft 433 kts 217°
2026-05-04 07:46 53.24407 9.78488 39981 ft 432 kts 217°
2026-05-04 07:47 53.19399 9.72913 39979 ft 432 kts 217°
2026-05-04 07:49 52.99372 9.50780 39980 ft 432 kts 216°
2026-05-04 07:49 52.94351 9.45270 39978 ft 432 kts 216°
2026-05-04 07:50 52.89624 9.39187 39977 ft 429 kts 223°
2026-05-04 07:50 52.85167 9.32624 39976 ft 428 kts 224°
2026-05-04 07:51 52.80796 9.26045 39976 ft 428 kts 224°
2026-05-04 07:51 52.76394 9.19434 39981 ft 428 kts 224°
2026-05-04 07:52 52.71975 9.12845 39975 ft 428 kts 224°
2026-05-04 07:52 52.67551 9.06279 39975 ft 428 kts 224°
2026-05-04 07:54 52.49938 8.80331 39978 ft 424 kts 224°
2026-05-04 07:55 52.45535 8.73888 39982 ft 425 kts 224°
2026-05-04 07:55 52.41115 8.67438 39982 ft 424 kts 223°
2026-05-04 07:56 52.36721 8.61045 39983 ft 422 kts 223°
2026-05-04 07:56 52.32330 8.54674 39978 ft 422 kts 223°
2026-05-04 07:57 52.27933 8.48312 39983 ft 422 kts 223°
2026-05-04 07:57 52.23552 8.41989 39987 ft 422 kts 223°
2026-05-04 07:58 52.19154 8.35661 39988 ft 420 kts 223°
2026-05-04 07:58 52.14772 8.29372 39992 ft 419 kts 223°
2026-05-04 07:59 52.10396 8.23109 39994 ft 419 kts 223°
2026-05-04 07:59 52.06018 8.16860 39994 ft 419 kts 223°
2026-05-04 08:00 52.01638 8.10625 40001 ft 419 kts 223°
2026-05-04 08:02 51.84153 7.85903 40001 ft 417 kts 222°
2026-05-04 08:02 51.79751 7.79721 39999 ft 417 kts 222°
2026-05-04 08:03 51.75391 7.73614 39994 ft 417 kts 222°
2026-05-04 08:03 51.70992 7.67469 39738 ft 422 kts 222°
2026-05-04 08:04 51.68758 7.64353 39203 ft 426 kts 222°
2026-05-04 08:04 51.66515 7.61230 38608 ft 427 kts 222°
2026-05-04 08:04 51.64264 7.58100 37918 ft 428 kts 221°
2026-05-04 08:04 51.62014 7.54977 37461 ft 424 kts 221°
2026-05-04 08:05 51.59792 7.51897 37012 ft 420 kts 221°
2026-05-04 08:05 51.57585 7.48842 36543 ft 416 kts 221°
2026-05-04 08:05 51.55404 7.45826 36051 ft 413 kts 221°
2026-05-04 08:05 51.53242 7.42840 35562 ft 411 kts 221°
2026-05-04 08:06 51.51078 7.39856 35032 ft 409 kts 221°
2026-05-04 08:06 51.48927 7.36893 34509 ft 408 kts 221°
2026-05-04 08:06 51.46771 7.33927 33952 ft 408 kts 221°
2026-05-04 08:06 51.44610 7.30957 33345 ft 408 kts 221°
2026-05-04 08:08 51.32583 7.06815 30106 ft 383 kts 234°
2026-05-04 08:08 51.31001 7.03410 29682 ft 378 kts 234°
2026-05-04 08:10 51.19288 6.78498 26780 ft 358 kts 232°
2026-05-04 08:11 51.17788 6.75328 26415 ft 356 kts 232°
2026-05-04 08:11 51.14820 6.69067 25653 ft 353 kts 232°
2026-05-04 08:11 51.13344 6.65956 25271 ft 351 kts 232°
2026-05-04 08:12 51.11867 6.62850 24917 ft 350 kts 232°
2026-05-04 08:12 51.10398 6.59764 24525 ft 349 kts 231°
2026-05-04 08:12 51.08890 6.56772 24165 ft 346 kts 227°
2026-05-04 08:12 51.07274 6.54012 23798 ft 345 kts 225°
2026-05-04 08:13 51.05609 6.51283 23413 ft 343 kts 225°
2026-05-04 08:13 51.03929 6.48601 23028 ft 342 kts 224°
2026-05-04 08:13 51.02247 6.45951 22664 ft 341 kts 224°
2026-05-04 08:13 51.00563 6.43313 22299 ft 341 kts 224°
2026-05-04 08:14 50.98875 6.40669 21933 ft 340 kts 224°
2026-05-04 08:14 50.97199 6.38042 21559 ft 339 kts 224°
2026-05-04 08:14 50.95519 6.35406 21196 ft 338 kts 224°
2026-05-04 08:16 50.83883 6.17170 18633 ft 334 kts 224°
2026-05-04 08:16 50.82231 6.14593 18260 ft 334 kts 224°
2026-05-04 08:16 50.80599 6.12048 17864 ft 333 kts 224°
2026-05-04 08:17 50.78959 6.09493 17504 ft 330 kts 224°
2026-05-04 08:17 50.77324 6.06949 17111 ft 329 kts 224°
2026-05-04 08:17 50.75702 6.04425 16755 ft 327 kts 225°
2026-05-04 08:17 50.74165 6.01802 16397 ft 325 kts 228°
2026-05-04 08:19 50.66395 5.81489 13844 ft 320 kts 276°
2026-05-04 08:19 50.67057 5.78136 13445 ft 322 kts 291°
2026-05-04 08:20 50.68040 5.74964 13058 ft 321 kts 294°
2026-05-04 08:20 50.69070 5.71842 12691 ft 320 kts 294°
2026-05-04 08:20 50.70091 5.68736 12319 ft 318 kts 294°
2026-05-04 08:20 50.71096 5.65649 11953 ft 316 kts 294°
2026-05-04 08:21 50.72091 5.62569 11585 ft 314 kts 294°
2026-05-04 08:21 50.73076 5.59505 11236 ft 312 kts 294°
2026-05-04 08:21 50.74037 5.56504 10867 ft 310 kts 294°
2026-05-04 08:21 50.75005 5.53474 10513 ft 308 kts 294°
2026-05-04 08:22 50.75963 5.50476 10378 ft 295 kts 294°
2026-05-04 08:22 50.76857 5.47677 10291 ft 282 kts 294°
2026-05-04 08:24 50.82871 5.28700 8599 ft 277 kts 295°
2026-05-04 08:24 50.83728 5.25985 8310 ft 276 kts 295°
2026-05-04 08:24 50.84584 5.23269 8016 ft 275 kts 295°
2026-05-04 08:24 50.85437 5.20562 7723 ft 274 kts 295°
2026-05-04 08:25 50.86287 5.17859 7422 ft 274 kts 295°
2026-05-04 08:25 50.87134 5.15166 7123 ft 273 kts 295°
2026-05-04 08:25 50.87918 5.12421 6709 ft 274 kts 291°
2026-05-04 08:25 50.88622 5.09615 6290 ft 275 kts 290°
2026-05-04 08:26 50.89308 5.06801 5897 ft 274 kts 290°
2026-05-04 08:27 50.93966 4.87631 3401 ft 260 kts 290°
2026-05-04 08:28 50.94614 4.84955 3065 ft 259 kts 290°
2026-05-04 08:28 50.95248 4.82331 2921 ft 249 kts 290°
2026-05-04 08:28 50.95782 4.79821 3095 ft 229 kts 280°
2026-05-04 08:28 50.95689 4.77436 3096 ft 211 kts 255°
2026-05-04 08:29 50.95230 4.75305 3021 ft 196 kts 248°
2026-05-04 08:29 50.94760 4.73388 2969 ft 180 kts 249°
2026-05-04 08:29 50.94338 4.71572 2773 ft 171 kts 249°
2026-05-04 08:31 50.91878 4.60908 1329 ft 137 kts 249°
2026-05-04 08:33 50.89618 4.51134 151 ft 114 kts 250°
2026-05-04 08:33 50.89377 4.50100 152 ft 87 kts 249°
2026-05-04 08:35 50.89631 4.49117 148 ft 31 kts 29°
2026-05-04 08:35 50.89854 4.49229 150 ft 32 kts 14°
2026-05-04 08:35 50.90072 4.49319 146 ft 32 kts 14°
2026-05-04 08:35 50.90262 4.49395 142 ft 22 kts